A/2020 B1

Japanese version
Home page
Updated on April 23, 2020

---------------------------------------------------------------------

* Profile

Discovery Date January 19, 2020
Magnitude 22.06 mag
Discoverer Pan-STARRS 1 telescope (Haleakala)

* Orbital Elements

Epoch 2019 Dec. 23.0 TT = JDT 2458840.5
T 2019 Dec. 25.94738 TT                                 Rudenko
q   1.7476872            (2000.0)            P               Q
z  +0.0191307      Peri.  154.79090     -0.27273992     -0.93086853
 +/-0.0000000      Node   310.03402     +0.82014338     -0.09285877
e   0.9665654      Incl.   18.51182     +0.50296895     -0.35335681
H   21.0
From 35 observations 2020 Jan. 19-Mar. 22, mean residual 0".1.

* Magnitudes Graph

        H = 21.0  G = 0.15

---------------------------------------------------------------------

The orbital elements are published on M.P.E.C. 2020-H67.
The magnitudes graphs are made with Comet for Windows.

---------------------------------------------------------------------

Copyright(C) Seiichi Yoshida (comet@aerith.net). All rights reserved.